Rocky Mount, NC

5:03 AM EDT on September 25, 2016 (GMT -0400)
Rocky Mount-Wilson Regional

Weather History for KRWI - January, 2013

Change the Weather History Date:

Sunday, January 20, 2013

  Actual Average Record
Temperature  
Mean Temperature 50 °F -  
Max Temperature 64 °F 49 °F 69 °F (1972)
Min Temperature 36 °F 29 °F 12 °F (1985)
Degree Days  
Heating Degree Days 15    
Moisture  
Dew Point 33 °F    
Average Humidity 59    
Maximum Humidity 83    
Minimum Humidity 28    
Precipitation  
Precipitation 0.00 in - - ()
Sea Level Pressure  
Sea Level Pressure 30.06 in    
Wind  
Wind Speed 6 mph (SW)    
Max Wind Speed 13 mph    
Max Gust Speed 20 mph    
Visibility 10 miles    
Events      
Averages and records for this station are not official NWS values.
T = Trace of Precipitation, MM = Missing Value Source: NWS Daily Summary

Daily Weather History Graph

Daily Weather History Graph

Search for Another Location

Airport or City:

Trip Planner

Search our weather history database for the weather conditions in past years. The results will help you decide how hot, cold, wet, or windy it might be!

Date:

Astronomy

Jan. 20, 2013 Rise Set
Actual Time 7:19 AM EST 5:26 PM EST
Civil Twilight 6:51 AM EST 5:54 PM EST
Nautical Twilight 6:20 AM EST 6:25 PM EST
Astronomical Twilight 5:49 AM EST 6:55 PM EST
Moon 12:25 PM EST (1/20) 1:50 AM EST (1/20)
Length of Visible Light 11h 02m
Length of Day
10h 07m
Waxing Gibbous, 66% of the Moon is Illuminated
Jan 20
Waxing Gibbous
Jan 26
Full
Feb 3
Last Quarter
Feb 10
New
Feb 17
First Quarter

Hourly Weather History & Observations

Time (EST) Temp. Windchill Dew Point Humidity Pressure Visibility Wind Dir Wind Speed Gust Speed Precip Events Conditions
12:53 AM 41.0 °F 38.0 °F 35.1 °F 79% 30.14 in 10.0 mi SSW 4.6 mph - N/A   Clear
1:53 AM 39.9 °F 36.7 °F 35.1 °F 83% 30.14 in 10.0 mi South 4.6 mph - N/A   Clear
2:53 AM 41.0 °F 36.4 °F 35.1 °F 79% 30.12 in 10.0 mi SSW 6.9 mph - N/A   Clear
3:53 AM 41.0 °F 36.4 °F 35.1 °F 79% 30.11 in 10.0 mi SSW 6.9 mph - N/A   Clear
4:53 AM 41.0 °F 36.4 °F 35.1 °F 79% 30.09 in 10.0 mi SSW 6.9 mph - N/A   Clear
5:53 AM 41.0 °F 36.4 °F 35.1 °F 79% 30.08 in 10.0 mi SSW 6.9 mph - N/A   Clear
7:53 AM 39.9 °F 35.1 °F 34.0 °F 79% 30.09 in 10.0 mi SW 6.9 mph - N/A   Clear
8:53 AM 46.0 °F 41.0 °F 36.0 °F 68% 30.09 in 10.0 mi SW 10.4 mph - N/A   Clear
9:53 AM 50.0 °F - 34.0 °F 54% 30.10 in 10.0 mi SW 11.5 mph - N/A   Clear
10:53 AM 54.0 °F - 33.1 °F 45% 30.09 in 10.0 mi SW 8.1 mph - N/A   Clear
11:53 AM 57.9 °F - 33.1 °F 39% 30.05 in 10.0 mi SW 10.4 mph - N/A   Clear
12:53 PM 61.0 °F - 33.1 °F 35% 30.01 in 10.0 mi West 9.2 mph - N/A   Clear
1:53 PM 64.0 °F - 30.9 °F 29% 29.99 in 10.0 mi WSW 12.7 mph 19.6 mph N/A   Clear
2:53 PM 64.9 °F - 30.9 °F 28% 29.97 in 10.0 mi West 11.5 mph 17.3 mph N/A   Clear
3:53 PM 64.0 °F - 30.9 °F 29% 29.97 in 10.0 mi WNW 10.4 mph 19.6 mph N/A   Clear
4:53 PM 62.1 °F - 28.9 °F 29% 29.99 in 10.0 mi Variable 6.9 mph - N/A   Clear
5:53 PM 55.9 °F - 28.9 °F 36% 30.01 in 10.0 mi Calm Calm - N/A   Clear
6:53 PM 43.0 °F - 33.1 °F 68% 30.04 in 10.0 mi Calm Calm - N/A   Clear
7:53 PM 42.1 °F - 34.0 °F 73% 30.05 in 10.0 mi Calm Calm - N/A   Clear
8:53 PM 48.9 °F - 30.9 °F 50% 30.07 in 10.0 mi NW 4.6 mph - N/A   Clear
9:53 PM 41.0 °F - 30.9 °F 67% 30.09 in 10.0 mi Calm Calm - N/A   Clear
10:53 PM 36.0 °F - 30.9 °F 82% 30.09 in 10.0 mi Calm Calm - N/A   Clear
11:53 PM 36.0 °F - 30.0 °F 79% 30.09 in 10.0 mi Calm Calm - N/A   Clear